Location: Gleizolles
(44.4833°N, 6.7667°E)
Time: 00:56:55
(UTC+00:00)

Vanguard 2 Rocket - Pass Details

Date: 20 June 2024
Orbit: 555 x 3302 km, 32.9° (Epoch: 24 July)

Event Time Altitude Azimuth Distance (km) Brightness Sun altitude
Rises 04:42:39 0° 255° (WSW) 7,281 10.8 7.6°
Reaches altitude 10° 04:47:47 10° 252° (WSW) 6,236 10.5 8.4°
Maximum altitude 05:06:18 54° 183° (S) 3,109 9.6 11.4°
Drops below altitude 10° 05:18:45 10° 110° (ESE) 4,347 11.3 13.5°
Sets 05:21:38 0° 106° (ESE) 5,028 11.7 14.0°
